Back to catalog

STARLINK-33696

AliveCommunicationsVLEO
NORAD 63463·PAYLOAD·🇺🇸 United States

Launched Apr 6, 2025 from Cape Canaveral Space Force Station

Loading…

Next Passes (next 24 hours)

TLE

FreshSource: CelesTrak SupGP

Epoch: Sep 15, 2026, 03:29 UTC

1 63463C 25070D   26258.14562500 -.00027064  00000+0 -98028-3 0  2580
2 63463  43.0027 269.8535 0001407 266.2711  10.7771 15.27590934    14

Track STARLINK-33696 in real time with AllMySat

Download on the App Store